Hourly Data Report for May 08, 2018

TORONTO CITY
ONTARIO
Current Station Operator: ECCC - MSC

43°40'00.000" N
79°24'00.000" W
112.50 m
6158355
71508
XTO

Download Data

Hourly Data (May 2018)
Hourly Data Report for May 8, 2018
TIME
LST
Temp Definition
°C
Dew Point Definition
°C
Rel Hum Definition
%
Precip. Amount Definition
mm

Wind Dir Definition
10's deg

Wind Spd Definition
km/h
Visibility Definition
km
Stn Press Definition
kPa
Hmdx Definition


Wind Chill Definition


Weather Definition


00:00 11.8 -4.3 32 0.0 LegendMM LegendMM   100.91     LegendNANA
01:00 10.6 -2.9 38 0.0 LegendMM LegendMM   100.89     LegendNANA
02:00 9.9 -3.0 40 0.0 LegendMM LegendMM   100.84     LegendNANA
03:00 10.0 -3.3 39 0.0 LegendMM LegendMM   100.87     LegendNANA
04:00 9.8 -1.6 45 0.0 LegendMM LegendMM   100.87     LegendNANA
05:00 8.7 -0.8 51 0.0 LegendMM LegendMM   100.87     LegendNANA
06:00 9.7 -1.0 47 0.0 LegendMM LegendMM   100.92     LegendNANA
07:00 13.3 -1.8 35 0.0 LegendMM LegendMM   100.92     LegendNANA
08:00 14.9 -2.8 29 0.0 LegendMM LegendMM   100.96     LegendNANA
09:00 15.7 -2.9 28 0.0 LegendMM LegendMM   101.00     LegendNANA
10:00 17.0 -5.2 22 0.0 LegendMM LegendMM   100.98     LegendNANA
11:00 17.2 -4.0 23 0.0 LegendMM LegendMM   100.97     LegendNANA
12:00 16.3 -4.8 23 0.0 LegendMM LegendMM   100.92     LegendNANA
13:00 16.4 -5.0 23 0.0 LegendMM LegendMM   100.89     LegendNANA
14:00 17.3 -4.1 23 0.0 LegendMM LegendMM   100.82     LegendNANA
15:00 17.5 -4.2 22 0.0 LegendMM LegendMM   100.76     LegendNANA
16:00 17.1 -2.4 26 0.0 LegendMM LegendMM   100.67     LegendNANA
17:00 16.8 -3.0 26 0.0 LegendMM LegendMM   100.67     LegendNANA
18:00 17.0 -2.6 26 0.0 LegendMM LegendMM   100.65     LegendNANA
19:00 15.7 -2.5 29 0.0 LegendMM LegendMM   100.63     LegendNANA
20:00 14.5 -0.3 36 0.0 LegendMM LegendMM   100.65     LegendNANA
21:00 14.5 1.9 42 0.0 LegendMM LegendMM   100.67     LegendNANA
22:00 14.0 1.5 43 0.0 LegendMM LegendMM   100.67     LegendNANA
23:00 14.2 3.2 47 0.0 LegendMM LegendMM   100.63     LegendNANA

Notes on Data Quality.

Legend

  • E = Estimated
  • M = Missing
  • NA = Not Available*
  • [empty] = Indicates an unobserved value
Date modified: